Daviess Cnty AP, Washington,, IN

2:08 AM EDT on July 20, 2019 (GMT -0400)
Daviess County

Weather History for KDCY - May, 2019

Change the Weather History Date:

Saturday, May 4, 2019

  Actual Average (KLWV) Record (KLWV)
Temperature  
Mean Temperature 58 °F 62 °F  
Max Temperature 59 °F 73 °F 87 °F (2001)
Min Temperature 56 °F 52 °F 33 °F (2005)
Degree Days  
Heating Degree Days 8 4  
Month to date heating degree days 18  
Since 1 July heating degree days 4609  
Cooling Degree Days 0 2  
Month to date cooling degree days 6  
Year to date cooling degree days 32  
Growing Degree Days 8 (Base 50)    
Moisture  
Dew Point 57 °F    
Average Humidity 98    
Maximum Humidity 100    
Minimum Humidity 89    
Precipitation  
Precipitation 0.62 in 0.20 in 1.10 in (2017)
Month to date precipitation 0.81  
Year to date precipitation 12.79  
Sea Level Pressure  
Sea Level Pressure 29.90 in    
Wind  
Wind Speed 5 mph (NNE)    
Max Wind Speed 12 mph    
Max Gust Speed -    
Visibility 8 miles    
Events Rain    
T = Trace of Precipitation, MM = Missing Value Source: NWS Daily Summary

Daily Weather History Graph

Daily Weather History Graph

Search for Another Location

Airport or City:

Astronomy

May. 04, 2019 Rise Set
Actual Time 6:47 AM EDT 8:43 PM EDT
Civil Twilight 6:18 AM EDT 9:12 PM EDT
Nautical Twilight 5:43 AM EDT 9:47 PM EDT
Astronomical Twilight 5:06 AM EDT 10:25 PM EDT
Moon 6:57 AM EDT (5/4) 8:33 PM EDT (5/4)
Length of Visible Light 14h 53m
Length of Day
13h 55m
Waning Crescent, 0% of the Moon is Illuminated
May 4
Waning Crescent
May 4
New
May 11
First Quarter
May 18
Full
May 26
Last Quarter

Hourly Weather History & Observations

Time (EDT) Temp. Dew Point Humidity Pressure Visibility Wind Dir Wind Speed Gust Speed Precip Events Conditions
12:35 AM 59.9 °F 59.0 °F 97% 29.97 in 10.0 mi NNE 4.6 mph - N/A   Overcast
12:55 AM 59.7 °F 59.0 °F 97% 29.96 in 10.0 mi North 3.5 mph - N/A   Overcast
1:15 AM 59.0 °F 59.0 °F 100% 29.96 in 10.0 mi North 4.6 mph - N/A   Overcast
1:35 AM 59.0 °F 58.6 °F 99% 29.96 in 10.0 mi North 3.5 mph - N/A   Overcast
1:55 AM 59.0 °F 58.6 °F 99% 29.95 in 10.0 mi Calm Calm - N/A   Overcast
2:15 AM 58.8 °F 58.6 °F 99% 29.94 in 10.0 mi ENE 3.5 mph - N/A   Overcast
2:35 AM 59.0 °F 58.8 °F 99% 29.93 in 10.0 mi ENE 3.5 mph - N/A   Overcast
2:55 AM 59.0 °F 58.8 °F 99% 29.93 in 10.0 mi Calm Calm - N/A   Overcast
3:15 AM 58.1 °F 57.9 °F 99% 29.94 in 10.0 mi Calm Calm - N/A   Overcast
3:35 AM 57.9 °F 57.6 °F 99% 29.93 in 10.0 mi Calm Calm - N/A   Overcast
3:55 AM 57.9 °F 57.6 °F 99% 29.94 in 10.0 mi Calm Calm - N/A   Overcast
4:15 AM 57.7 °F 57.6 °F 99% 29.94 in 10.0 mi Calm Calm - N/A   Overcast
4:35 AM 57.6 °F 57.4 °F 99% 29.93 in 10.0 mi Calm Calm - N/A   Overcast
4:55 AM 57.4 °F 57.2 °F 99% 29.92 in 10.0 mi ENE 4.6 mph - N/A   Overcast
5:15 AM 57.6 °F 57.4 °F 99% 29.91 in 10.0 mi NE 4.6 mph - N/A   Overcast
5:35 AM 57.4 °F 57.2 °F 99% 29.90 in 10.0 mi NE 5.8 mph - N/A   Mostly Cloudy
5:55 AM 57.2 °F 57.2 °F 100% 29.90 in 10.0 mi NE 3.5 mph - N/A   Mostly Cloudy
6:15 AM 57.4 °F 57.2 °F 99% 29.91 in 10.0 mi NE 3.5 mph - N/A   Overcast
6:35 AM 57.4 °F 57.2 °F 99% 29.92 in 7.0 mi Calm Calm - N/A   Overcast
6:55 AM 57.4 °F 57.2 °F 99% 29.92 in 7.0 mi Calm Calm - N/A Rain Light Rain
7:15 AM 57.4 °F 57.2 °F 99% 29.93 in 4.0 mi Calm Calm - 0.01 in Rain Rain
7:35 AM 57.4 °F 57.2 °F 99% 29.93 in 2.0 mi Calm Calm - 0.06 in Rain Rain
7:55 AM 57.4 °F 57.2 °F 99% 29.94 in 2.5 mi North 4.6 mph - 0.10 in Rain Rain
8:15 AM 57.4 °F 57.2 °F 99% 29.93 in 2.5 mi NNE 5.8 mph - 0.02 in Rain Light Rain
8:35 AM 57.4 °F 57.2 °F 99% 29.93 in 2.5 mi NNE 4.6 mph - 0.03 in Rain Rain
8:55 AM 57.0 °F 56.7 °F 99% 29.93 in 3.0 mi NNE 8.1 mph - 0.05 in Rain Light Rain
9:15 AM 57.2 °F 56.8 °F 99% 29.92 in 4.0 mi NNE 9.2 mph - 0.01 in Rain Light Rain
9:35 AM 56.7 °F 56.5 °F 99% 29.91 in 7.0 mi NNE 11.5 mph - 0.02 in   Drizzle
9:55 AM 56.7 °F 56.3 °F 99% 29.92 in 7.0 mi NNE 8.1 mph - 0.03 in Rain Light Rain
10:15 AM 56.7 °F 56.5 °F 99% 29.91 in 7.0 mi NNE 9.2 mph - 0.03 in Rain Rain
10:35 AM 56.7 °F 56.3 °F 99% 29.92 in 7.0 mi NNE 10.4 mph - 0.08 in Rain Rain
10:55 AM 56.5 °F 56.3 °F 99% 29.92 in 7.0 mi North 10.4 mph - 0.11 in Rain Light Rain
11:15 AM 56.3 °F 56.1 °F 99% 29.92 in 5.0 mi NNE 6.9 mph - 0.04 in Rain Rain
11:35 AM 56.8 °F 56.5 °F 99% 29.92 in 5.0 mi NNE 6.9 mph - 0.09 in Rain Rain
11:55 AM 57.4 °F 57.2 °F 99% 29.91 in 10.0 mi NNE 9.2 mph - 0.11 in Rain Light Rain
12:15 PM 57.4 °F 57.2 °F 99% 29.91 in 10.0 mi NNE 8.1 mph - 0.01 in Rain Light Rain
12:35 PM 57.4 °F 57.2 °F 99% 29.92 in 5.0 mi NNE 5.8 mph - 0.04 in Rain Rain
12:55 PM 57.4 °F 57.2 °F 99% 29.91 in 4.0 mi NE 6.9 mph - 0.10 in Rain Rain
1:15 PM 57.7 °F 57.4 °F 99% 29.91 in 3.0 mi NE 6.9 mph - 0.04 in Rain Rain
1:35 PM 58.1 °F 57.9 °F 99% 29.90 in 5.0 mi NE 5.8 mph - 0.07 in Rain Heavy Rain
1:55 PM 58.3 °F 58.1 °F 99% 29.90 in 7.0 mi North 8.1 mph - 0.08 in   Drizzle
2:15 PM 58.1 °F 58.1 °F 100% 29.90 in 5.0 mi North 9.2 mph - 0.01 in Rain Heavy Rain
2:35 PM 58.5 °F 58.3 °F 99% 29.90 in 10.0 mi North 9.2 mph - 0.01 in   Drizzle
2:55 PM 58.8 °F 58.5 °F 99% 29.89 in 5.0 mi NNE 9.2 mph - 0.02 in Rain Light Rain
3:15 PM 58.8 °F 58.5 °F 99% 29.89 in 7.0 mi North 11.5 mph - 0.01 in   Drizzle
3:40 PM 58.5 °F 58.3 °F 99% 29.89 in 7.0 mi North 11.5 mph - 0.01 in   Heavy Drizzle
3:55 PM 58.5 °F 58.3 °F 99% 29.88 in 5.0 mi North 9.2 mph - 0.02 in   Drizzle
4:15 PM 58.1 °F 57.9 °F 99% 29.88 in 10.0 mi NNE 11.5 mph - N/A   Light Drizzle
4:35 PM 58.1 °F 57.7 °F 99% 29.88 in 10.0 mi NNE 11.5 mph - N/A   Overcast
4:55 PM 58.1 °F 57.7 °F 99% 29.88 in 10.0 mi NNE 11.5 mph - N/A Rain Light Rain
5:15 PM 58.5 °F 58.1 °F 99% 29.87 in 10.0 mi NNE 6.9 mph - N/A   Overcast
5:35 PM 58.3 °F 58.1 °F 99% 29.87 in 10.0 mi NNE 8.1 mph - N/A   Overcast
5:55 PM 58.1 °F 57.7 °F 99% 29.87 in 10.0 mi NNE 10.4 mph - N/A   Overcast
6:15 PM 58.1 °F 57.0 °F 96% 29.87 in 10.0 mi NNE 10.4 mph - N/A   Overcast
6:35 PM 58.3 °F 57.2 °F 96% 29.86 in 10.0 mi NNE 6.9 mph - N/A   Overcast
6:55 PM 58.1 °F 57.2 °F 97% 29.86 in 10.0 mi NNE 6.9 mph - N/A   Overcast
7:15 PM 57.7 °F 56.5 °F 96% 29.86 in 10.0 mi North 10.4 mph - N/A   Overcast
7:35 PM 57.2 °F 56.5 °F 97% 29.86 in 10.0 mi North 11.5 mph - N/A   Overcast
7:55 PM 57.2 °F 55.6 °F 94% 29.86 in 10.0 mi NNE 8.1 mph - N/A   Overcast
8:35 PM 56.7 °F 55.8 °F 97% 29.86 in 10.0 mi North 10.4 mph - N/A   Overcast
8:50 PM 56.5 °F 55.6 °F 97% 29.86 in 10.0 mi North 9.2 mph - N/A   Overcast
9:15 PM 56.5 °F 55.0 °F 95% 29.87 in 10.0 mi NNE 6.9 mph - N/A   Overcast
9:35 PM 56.7 °F 54.5 °F 92% 29.87 in 10.0 mi NNE 8.1 mph - N/A   Overcast
9:55 PM 56.3 °F 54.1 °F 92% 29.87 in 10.0 mi NNE 6.9 mph - N/A   Overcast
10:15 PM 56.5 °F 53.8 °F 91% 29.88 in 10.0 mi NNE 6.9 mph - N/A   Overcast
10:35 PM 56.5 °F 53.4 °F 89% 29.89 in 10.0 mi NE 5.8 mph - N/A   Overcast
10:55 PM 56.3 °F 54.1 °F 92% 29.88 in 10.0 mi NE 5.8 mph - N/A   Overcast
11:15 PM 56.3 °F 54.3 °F 93% 29.89 in 10.0 mi NNE 3.5 mph - N/A   Overcast
11:35 PM 56.3 °F 53.4 °F 90% 29.88 in 10.0 mi NNE 4.6 mph - N/A   Overcast
11:55 PM 56.3 °F 53.4 °F 90% 29.88 in 10.0 mi NNE 4.6 mph - N/A   Overcast